• In India
  • List of Countries
  • For 7 days
  • Water Temperature
  • Satellite Maps
  • Weather Map
  • Weather Widgets
  • user-avatar
    Login

    Hourly Weather Popasne

    Today, 21 August, Tuesday

    Time Temperature Precipitation Wind Pressure Humidity
    00:00 +19°C° 0 mm 1 mps 746 mmHg 38%
    01:00 +18°C° 0 mm 1 mps 746 mmHg 39%
    02:00 +18°C° 0 mm 1 mps 746 mmHg 40%
    03:00 +18°C° 0 mm 1 mps 746 mmHg 41%
    04:00 +16°C° 0 mm 1 mps 746 mmHg 43%
    05:00 +16°C° 0 mm 1 mps 746 mmHg 44%
    06:00 +19°C° 0 mm 1 mps 746 mmHg 40%
    07:00 +21°C° 0 mm 2 mps 746 mmHg 36%
    08:00 +24°C° 0 mm 2 mps 746 mmHg 33%
    09:00 +26°C° 0 mm 2 mps 746 mmHg 30%
    10:00 +27°C° 0 mm 2 mps 746 mmHg 26%
    11:00 +29°C° 0 mm 2 mps 746 mmHg 23%
    12:00 +29°C° 0 mm 2 mps 745 mmHg 22%
    13:00 +30°C° 0 mm 2 mps 745 mmHg 21%
    14:00 +31°C° 0 mm 2 mps 744 mmHg 21%
    15:00 +30°C° 0 mm 2 mps 744 mmHg 23%
    16:00 +30°C° 0 mm 2 mps 744 mmHg 25%
    17:00 +30°C° 0 mm 2 mps 743 mmHg 27%
    18:00 +27°C° 0 mm 2 mps 743 mmHg 29%
    19:00 +25°C° 0 mm 2 mps 743 mmHg 32%
    20:00 +23°C° 0 mm 2 mps 743 mmHg 34%
    21:00 +21°C° 0 mm 2 mps 743 mmHg 34%
    22:00 +21°C° 0 mm 2 mps 743 mmHg 34%
    23:00 +21°C° 0 mm 2 mps 743 mmHg 34%

    Tomorrow, 22 August, Wednesday

    Time Temperature Precipitation Wind Pressure Humidity
    00:00 +20°C° 0 mm 2 mps 743 mmHg 37%
    01:00 +20°C° 0 mm 2 mps 743 mmHg 40%
    02:00 +19°C° 0 mm 2 mps 743 mmHg 43%
    03:00 +19°C° 0 mm 3 mps 743 mmHg 52%
    04:00 +18°C° 0 mm 3 mps 743 mmHg 62%
    05:00 +18°C° 0 mm 3 mps 744 mmHg 72%
    06:00 +19°C° 0 mm 3 mps 744 mmHg 70%
    07:00 +21°C° 0 mm 4 mps 744 mmHg 67%
    08:00 +23°C° 0 mm 4 mps 745 mmHg 65%
    09:00 +25°C° 0 mm 5 mps 745 mmHg 58%
    10:00 +26°C° 0 mm 5 mps 745 mmHg 52%
    11:00 +27°C° 0 mm 5 mps 745 mmHg 45%
    12:00 +27°C° 0 mm 5 mps 745 mmHg 42%
    13:00 +27°C° 0 mm 5 mps 746 mmHg 40%
    14:00 +27°C° 0 mm 5 mps 746 mmHg 37%
    15:00 +27°C° 0 mm 5 mps 746 mmHg 38%
    16:00 +26°C° 0 mm 5 mps 746 mmHg 39%
    17:00 +25°C° 0 mm 5 mps 746 mmHg 40%
    18:00 +22°C° 0 mm 4 mps 747 mmHg 46%
    19:00 +20°C° 0 mm 4 mps 747 mmHg 51%
    20:00 +18°C° 0 mm 3 mps 748 mmHg 56%
    21:00 +17°C° 0 mm 3 mps 748 mmHg 58%
    22:00 +17°C° 0 mm 3 mps 748 mmHg 59%
    23:00 +16°C° 0 mm 3 mps 749 mmHg 61%

    Day after tomorrow, 23 August, Thursday

    Time Temperature Precipitation Wind Pressure Humidity
    00:00 +14°C° 0 mm 3 mps 749 mmHg 62%
    01:00 +13°C° 0 mm 3 mps 749 mmHg 63%
    02:00 +13°C° 0 mm 3 mps 749 mmHg 64%
    03:00 +12°C° 0 mm 3 mps 749 mmHg 65%
    04:00 +12°C° 0 mm 3 mps 749 mmHg 66%
    05:00 +13°C° 0 mm 2 mps 750 mmHg 68%
    06:00 +14°C° 0 mm 3 mps 750 mmHg 61%
    07:00 +17°C° 0 mm 3 mps 750 mmHg 53%
    08:00 +19°C° 0 mm 3 mps 750 mmHg 46%
    09:00 +21°C° 0 mm 3 mps 750 mmHg 41%
    10:00 +22°C° 0 mm 3 mps 750 mmHg 36%
    11:00 +24°C° 0 mm 3 mps 750 mmHg 32%
    12:00 +25°C° 0 mm 3 mps 750 mmHg 30%
    13:00 +25°C° 0 mm 3 mps 750 mmHg 29%
    14:00 +26°C° 0 mm 3 mps 749 mmHg 27%
    15:00 +25°C° 0 mm 3 mps 749 mmHg 29%
    16:00 +25°C° 0 mm 3 mps 749 mmHg 31%
    17:00 +25°C° 0 mm 3 mps 749 mmHg 32%
    18:00 +22°C° 0 mm 3 mps 749 mmHg 37%
    19:00 +19°C° 0 mm 3 mps 749 mmHg 42%
    20:00 +17°C° 0 mm 3 mps 749 mmHg 47%
    21:00 +17°C° 0 mm 3 mps 749 mmHg 49%
    22:00 +16°C° 0 mm 3 mps 749 mmHg 51%
    23:00 +14°C° 0 mm 3 mps 749 mmHg 53%

    24 August, Friday

    Time Temperature Precipitation Wind Pressure Humidity
    00:00 +14°C° 0 mm 3 mps 749 mmHg 54%
    01:00 +14°C° 0 mm 3 mps 749 mmHg 55%
    02:00 +13°C° 0 mm 3 mps 749 mmHg 56%
    03:00 +13°C° 0 mm 3 mps 749 mmHg 57%
    04:00 +13°C° 0 mm 3 mps 749 mmHg 59%
    05:00 +12°C° 0 mm 3 mps 749 mmHg 60%
    06:00 +16°C° 0 mm 3 mps 749 mmHg 53%
    07:00 +18°C° 0 mm 3 mps 749 mmHg 47%
    08:00 +21°C° 0 mm 4 mps 749 mmHg 40%
    09:00 +22°C° 0 mm 4 mps 749 mmHg 36%
    10:00 +25°C° 0 mm 4 mps 749 mmHg 32%
    11:00 +27°C° 0 mm 4 mps 749 mmHg 28%
    12:00 +27°C° 0 mm 4 mps 748 mmHg 27%
    13:00 +28°C° 0 mm 4 mps 748 mmHg 26%
    14:00 +28°C° 0 mm 4 mps 748 mmHg 24%
    15:00 +28°C° 0 mm 4 mps 747 mmHg 26%
    16:00 +27°C° 0 mm 3 mps 747 mmHg 28%
    17:00 +27°C° 0 mm 3 mps 747 mmHg 30%
    18:00 +25°C° 0 mm 3 mps 747 mmHg 33%
    19:00 +21°C° 0 mm 3 mps 747 mmHg 37%
    20:00 +19°C° 0 mm 3 mps 747 mmHg 40%
    21:00 +18°C° 0 mm 3 mps 747 mmHg 42%
    22:00 +18°C° 0 mm 3 mps 747 mmHg 44%
    23:00 +17°C° 0 mm 3 mps 747 mmHg 45%

    25 August, Saturday

    Time Temperature Precipitation Wind Pressure Humidity
    00:00 +16°C° 0 mm 3 mps 747 mmHg 46%
    01:00 +16°C° 0 mm 3 mps 746 mmHg 48%
    02:00 +14°C° 0 mm 3 mps 746 mmHg 49%
    03:00 +14°C° 0 mm 3 mps 746 mmHg 49%
    04:00 +13°C° 0 mm 3 mps 746 mmHg 50%
    05:00 +13°C° 0 mm 3 mps 746 mmHg 50%
    06:00 +17°C° 0 mm 3 mps 747 mmHg 45%
    07:00 +19°C° 0 mm 4 mps 747 mmHg 41%
    08:00 +21°C° 0 mm 4 mps 747 mmHg 36%
    09:00 +23°C° 0 mm 4 mps 746 mmHg 31%
    10:00 +26°C° 0 mm 5 mps 746 mmHg 27%
    11:00 +28°C° 0 mm 5 mps 746 mmHg 23%
    12:00 +29°C° 0 mm 5 mps 746 mmHg 22%
    13:00 +29°C° 0 mm 4 mps 745 mmHg 21%
    14:00 +30°C° 0 mm 4 mps 745 mmHg 20%
    15:00 +29°C° 0 mm 4 mps 745 mmHg 22%
    16:00 +29°C° 0 mm 4 mps 745 mmHg 24%
    17:00 +28°C° 0 mm 3 mps 744 mmHg 26%
    18:00 +26°C° 0 mm 3 mps 744 mmHg 29%
    19:00 +24°C° 0 mm 3 mps 745 mmHg 31%
    20:00 +20°C° 0 mm 3 mps 745 mmHg 34%
    21:00 +20°C° 0 mm 3 mps 745 mmHg 34%
    22:00 +19°C° 0 mm 3 mps 745 mmHg 34%
    23:00 +18°C° 0 mm 3 mps 745 mmHg 35%

    26 August, Sunday

    Time Temperature Precipitation Wind Pressure Humidity
    00:00 +18°C° 0 mm 3 mps 745 mmHg 36%
    01:00 +17°C° 0 mm 3 mps 745 mmHg 36%
    02:00 +17°C° 0 mm 3 mps 745 mmHg 37%
    03:00 +16°C° 0 mm 3 mps 745 mmHg 40%
    04:00 +16°C° 0 mm 3 mps 745 mmHg 42%
    05:00 +14°C° 0 mm 3 mps 745 mmHg 45%
    06:00 +18°C° 0 mm 3 mps 745 mmHg 42%
    07:00 +20°C° 0 mm 3 mps 745 mmHg 39%
    08:00 +23°C° 0 mm 4 mps 745 mmHg 36%
    09:00 +26°C° 0 mm 4 mps 745 mmHg 32%
    10:00 +28°C° 0 mm 5 mps 745 mmHg 27%
    11:00 +30°C° 0 mm 5 mps 745 mmHg 23%
    12:00 +30°C° 0 mm 5 mps 744 mmHg 23%
    13:00 +32°C° 0 mm 5 mps 744 mmHg 23%
    14:00 +32°C° 0 mm 5 mps 744 mmHg 23%
    15:00 +30°C° 0 mm 5 mps 744 mmHg 25%
    16:00 +30°C° 0 mm 5 mps 743 mmHg 27%
    17:00 +29°C° 0 mm 4 mps 743 mmHg 29%
    18:00 +27°C° 0 mm 4 mps 743 mmHg 33%
    19:00 +25°C° 0 mm 4 mps 743 mmHg 36%
    20:00 +23°C° 0 mm 4 mps 743 mmHg 40%
    21:00 +22°C° 0 mm 4 mps 743 mmHg 41%
    22:00 +22°C° 0 mm 5 mps 744 mmHg 42%
    23:00 +22°C° 0 mm 5 mps 744 mmHg 43%
    Show more